[Iaude] MPEC K146: 2024 KJ1 [a=0.96,e=0.10,i=7.5,H=26.1]

mpec at cfa.harvard.edu mpec at cfa.harvard.edu
Fri May 31 03:57:32 EDT 2024


M.P.E.C. 2024-K146                                 Issued 2024 May 31, 07:56 UT

     The Minor Planet Electronic Circulars contain information on unusual
         minor planets, routine data on comets and natural satellites,
         and occasional editorial announcements.  They are published
    on behalf of Division F of the International Astronomical Union by the
          Minor Planet Center, Smithsonian Astrophysical Observatory,
                          Cambridge, MA 02138, U.S.A.
			  
             Prepared using the Tamkin Foundation Computer Network

                              MPC at CFA.HARVARD.EDU
            URL https://www.minorplanetcenter.net/    ISSN 1523-6714

                                    2024 KJ1                                    


Observations:
     K24K01J* C2024 05 30.28818214 47 26.800+13 12 39.10         20.86wXEK146F52
     K24K01J  C2024 05 30.29933314 47 21.205+13 11 28.31         21.20wXEK146F52
     K24K01J  C2024 05 30.31044914 47 15.633+13 10 17.41         21.07wXEK146F52
     K24K01J DC2024 05 30.38060 14 46 33.82 +13 02 01.7          22.4 GVEK146695
     K24K01J  C2024 05 30.38300814 46 38.898+13 02 29.66         21.09GVEK146F52
     K24K01J DC2024 05 30.38324 14 46 32.58 +13 01 44.3          21.1 GVEK146695
     K24K01J  C2024 05 30.38365914 46 38.565+13 02 25.36         21.34GVEK146F52
     K24K01J DC2024 05 30.38588 14 46 31.30 +13 01 27.2          21.8 GVEK146695
     K24K01J  C2024 05 30.39588514 46 26.375+13 00 13.11         21.5 GVEK146H01
     K24K01J  C2024 05 30.39942514 46 24.734+12 59 49.59         21.0 GVEK146H01
     K24K01J  C2024 05 30.40467114 46 22.282+12 59 14.54         21.1 GVEK146H01
     K24K01J KC2024 05 30.40873214 46 20.557+12 58 53.29         20.68GVEK146I52
     K24K01J KC2024 05 30.41266714 46 18.606+12 58 27.44         21.79GVEK146I52
     K24K01J  C2024 05 30.41408514 46 17.945+12 58 12.05         22.1 GVEK146H01
     K24K01J KC2024 05 30.41453614 46 17.818+12 58 14.88         21.39GVEK146I52
     K24K01J KC2024 05 30.41640114 46 17.008+12 58 01.31         20.88GVEK146I52
     K24K01J 7C2024 05 30.98817314 42 11.621+11 55 45.23         20.1 GVEK146Z84
     K24K01J 7C2024 05 31.00213714 42 04.766+11 54 12.00               VEK146Z84
     K24K01J 7C2024 05 31.01364714 41 59.137+11 52 55.34         20.3 GVEK146Z84
     K24K01J 1C2024 05 31.02335 14 41 54.13 +11 51 14.1          21.4 VXEK146033
     K24K01J 1C2024 05 31.02508 14 41 53.28 +11 51 01.9          22.1 VXEK146033
     K24K01J 1C2024 05 31.02680 14 41 52.50 +11 50 50.9          21.5 VXEK146033
     K24K01J 1C2024 05 31.02853 14 41 51.71 +11 50 39.1          21.8 VXEK146033
     K24K01J KC2024 05 31.13608514 41 11.75 +11 39 22.7          21.2 GVEK146H21
     K24K01J KC2024 05 31.14042114 41 09.65 +11 38 54.2          21.3 GVEK146H21
     K24K01J KC2024 05 31.14947414 41 05.18 +11 37 53.9          21.2 GVEK146H21
     K24K01J KC2024 05 31.16021 14 41 03.77 +11 37 00.0          21.2 GVEK146291
     K24K01J KC2024 05 31.16628 14 41 00.77 +11 36 20.1          21.3 GVEK146291
     K24K01J KC2024 05 31.17224 14 40 57.83 +11 35 41.2          21.4 GVEK146291
     K24K01J  C2024 05 31.23156114 40 27.634+11 29 03.67         21.3 GVEK146H01
     K24K01J  C2024 05 31.23553114 40 25.667+11 28 37.28         21.0 GVEK146H01
     K24K01J  C2024 05 31.24594814 40 20.500+11 27 27.60         20.6 GVEK146H01
     K24K01J  C2024 05 31.25279314 40 17.106+11 26 41.93         21.3 GVEK146H01
     K24K01J KC2024 05 31.31313614 39 47.866+11 20 01.18         22.09GVEK146I52
     K24K01J KC2024 05 31.31497114 39 46.998+11 19 49.51         21.58GVEK146I52
     K24K01J KC2024 05 31.31681314 39 46.069+11 19 36.88         21.40GVEK146I52
     K24K01J KC2024 05 31.31864614 39 45.133+11 19 23.88         20.89GVEK146I52

Observer details:
033 Karl Schwarzschild Observatory, Tautenburg.  Observers C. Heogner, F.
    Ludwig, M. Hartmann, B. Stecklum.  Measurer B. Stecklum.  1.34-m f/3
    Schmidt + CCD.
291 LPL/Spacewatch II.  Observer A. F. Tubbiolo.  1.8-m f/2.7 reflector + CCD.
695 Kitt Peak.  Observer A. F. Tubbiolo.  2.3-m f/9 reflector + CCD.
F52 Pan-STARRS 2, Haleakala.  Observers J. Herman, T. Lowe, P. Minguez, A.
    Schultz, I. Smith.  Measurers K. Chambers, T. de Boer, J. Fairlamb, H.
    Gao, M. Huber, C.-C. Lin, E. Magnier, Y. Ramanjooloo, R. Wainscoat, R.
    Weryk.  1.8-m Ritchey-Chretien + CCD.
H01 Magdalena Ridge Observatory, Socorro.  Observers W. H. Ryan, E. V. Ryan.
    Measurer W. H. Ryan.  2.4-m f/8.9 Ritchey-Chretien + CCD.
H21 Astronomical Research Observatory, Westfield.  Observer R. Holmes.
    Measurers T. Linder, R. Holmes, L. Horn.  1.3-m f/4.0 astrograph + CCD.
I52 Steward Observatory, Mt. Lemmon Station.  Observer V. F. Carvajal.
    Measurers T. Beuden, V. F. Carvajal, D. Fay, J. B. Fazekas, D. C. Fuls, A.
    R. Gibbs, A. D. Grauer, H. Groeller, J. K. Hogan, R. A. Kowalski, S. M.
    Larson, G. J. Leonard, D. Rankin, R. L. Seaman, F. C. Shelly, K. W.
    Wierzchos.  1.0-m prime focus + CCD.
Z84 Calar Alto-Schmidt.  Observers F. Ocana, R. Kresken, M. Micheli, L.
    Conversi.  Measurers F. Ocana, M. Micheli.  0.8-m f/3 Schmidt + CCD.

Orbital elements:
2024 KJ1                                                 Earth MOID = 0.0301 AU
Epoch 2024 Mar. 31.0 TT = JDT 2460400.5                 MPC                     
M 129.91526              (2000.0)            P               Q                  
n   1.04737886     Peri.  338.81099     +0.54553489     -0.82822314             
a   0.9602851      Node    77.91895     +0.78655155     +0.45314367             
e   0.0988236      Incl.    7.53403     +0.28935851     +0.32970782             
P   0.94           H   26.17          G   0.15           U   7                  
Residuals in seconds of arc
240530 F52  0.1+  0.0     240530 H01  0.3+  0.0     240531 291  0.0   0.2-
240530 F52  0.0   0.1+    240530 I52  0.2+  0.1+    240531 291  0.1-  0.3-
240530 F52  0.2+  0.2+    240530 I52 (1.1+  1.0-)   240531 291  0.0   0.0
240530 695  0.1-  0.2-    240530 Z84  0.4+  0.1-    240531 H01  0.1+  0.0
240530 F52  0.2+  0.2+    240531 Z84  0.3+  0.2-    240531 H01  0.2+  0.0
240530 695  0.2+  0.1-    240531 Z84  0.1+  0.1+    240531 H01  0.2+  0.2-
240530 F52  0.1+  0.1+    240531 033  0.0   0.1+    240531 H01  0.2+  0.1-
240530 695  0.2-  0.3+    240531 033  0.6-  0.5-    240531 I52  0.1+  0.2-
240530 H01  0.1-  0.1-    240531 033  0.2-  0.0     240531 I52  0.5+  0.5+
240530 H01  0.1+  0.1-    240531 033  0.0   0.2-    240531 I52  0.1+  0.3+
240530 H01  0.1-  0.2-    240531 H21  0.3-  0.2+    240531 I52  0.5-  0.3-
240530 I52  0.7+  0.1-    240531 H21  0.2+  0.3+
240530 I52  1.0-  0.3+    240531 H21  0.0   0.2-

Ephemeris:
2024 KJ1                 a,e,i = 0.96, 0.10, 8                   q = 0.8654
Date    TT    R. A. (2000) Decl.     Delta      r    Elong.  Phase     V
2024 05 01    17 27 09.7 +34 56 28   0.09487 1.0515   115.2    60.1    23.3
...
2024 05 16    16 25 07.0 +30 39 44   0.06838 1.0551   128.6    48.5    22.3
...
2024 05 24    15 33 11.5 +23 00 51   0.05769 1.0546   135.6    42.2    21.7
...
2024 05 30    14 49 29.2 +13 43 59   0.05306 1.0532   137.0    41.0    21.5
2024 05 31    14 42 10.1 +11 55 45   0.05266 1.0528   136.7    41.3    21.5
2024 06 01    14 34 54.2 +10 04 18   0.05237 1.0525   136.2    41.8    21.5
...
2024 06 07    13 53 41.6 -01 35 35   0.05307 1.0497   129.9    47.9    21.7
...
2024 06 15    13 08 45.9 -15 46 58   0.05971 1.0447   117.5    59.6    22.3
...
2024 06 30    12 13 51.3 -33 08 56   0.08121 1.0311    98.0    77.5    23.5

A. U. Tomatic                (C) Copyright 2024 MPC           M.P.E.C. 2024-K146





More information about the Iaude mailing list